Location: Unspecified
(0.0000°N, 0.0000°E)
Time: 03:27:59
(UTC+00:00)

N. Korean satellite - Pass Details

Date: 16 January 2018
Orbit: 458 x 515 km, 97.2° (Epoch: 23 January)

Event Time Altitude Azimuth Distance (km) Brightness Sun altitude
Rises 19:03:33 0° 197° (SSW) 2,625 10.9 -12.5°
Reaches altitude 10° 19:06:15 10° 218° (SW) 1,731 10.3 -13.2°
Maximum altitude 19:08:39 16° 258° (WSW) 1,365 10.0 -13.7°
Drops below altitude 10° 19:11:02 10° 299° (WNW) 1,711 9.9 -14.3°
Sets 19:13:42 0° 320° (NW) 2,581 10.5 -14.9°
